[ ตารางข้อมูล ] [ Min-Max ] [ วันนี้2 ] [ วันนี้4 ] [ เทียบ-A 3วัน ] [ เทียบ-B 4วัน ]   

วันนี้4   [ ◀ ช่วงเก่ากว่า ] [ ช่วงที่ 18 ] [ ช่วงใหม่กว่า ▶ ] [ ล่าสุด ]    [ 3 ชั่วโมง ] [ 6 ชั่วโมง ] [ 12 ชั่วโมง ] [ 24 ชั่วโมง ]   วันนี้4

อุณภูมิในตู้ Knockdown4529  ราย 24 ชั่วโมง  ที่วัดได้ ในช่วงวันเวลา 13/08/2026 (21:16) ถึง 14/08/2026 (21:16) 
ความชื้นในตู้ Knockdown4529  ราย 24 ชั่วโมง  ที่วัดได้ ในช่วงวันเวลา 13/08/2026 (21:16) ถึง 14/08/2026 (21:16) 
การใช้ไฟฟ้าในตู้ Knockdown4529  ราย 24 ชั่วโมง  ที่วัดได้ ในช่วงวันเวลา 13/08/2026 (21:16) ถึง 14/08/2026 (21:16) 

  DS18B20SHTC3PZEM-004TWiFi 
IDDate d/m/Y & Timedata1
สูง
data2
ต่ำ
data3
นอก
temp
pcb
hum
pcb
VoltAmpWattrssiTime
 12630  14/08/2026 21:14:11  31.0  31.2  27.7  32.1  67.5  228.1  0.04  4.6  -76  21:14 
 12629  14/08/2026 21:09:28  31.1  31.2  27.6  32.0  67.3  228.0  0.04  4.6  -76  21:09 
 12628  14/08/2026 21:04:45  31.1  31.2  27.7  32.1  67.3  229.9  0.04  4.6  -76  21:04 
 12627  14/08/2026 21:00:01  31.1  31.3  27.7  32.1  67.3  229.5  0.04  4.6  -72  21:00 
 12626  14/08/2026 20:55:18  31.1  31.3  27.6  32.1  67.4  229.6  0.04  4.6  -76  20:55 
 12625  14/08/2026 20:50:34  31.1  31.4  27.7  32.1  67.3  229.5  0.04  4.6  -75  20:50 
 12624  14/08/2026 20:45:51  31.2  31.4  27.7  32.4  67.3  229.6  0.04  4.6  -76  20:45 
 12623  14/08/2026 20:41:07  31.2  31.4  27.8  32.2  67.1  229.4  0.04  4.6  -74  20:41 
 12622  14/08/2026 20:36:24  31.2  31.4  27.7  32.1  67.1  229.7  0.04  4.6  -77  20:36 
 12621  14/08/2026 20:31:40  31.3  31.5  27.7  32.5  67.3  229.8  0.04  4.6  -73  20:31 
 12620  14/08/2026 20:26:57  31.3  31.5  27.7  32.2  67.1  229.7  0.04  4.6  -76  20:26 
 12619  14/08/2026 20:22:14  31.3  31.6  27.9  32.4  67.2  231.5  0.04  4.6  -75  20:22 
 12618  14/08/2026 20:17:31  31.4  31.6  27.9  32.3  67.2  232.3  0.04  4.6  -77  20:17 
 12617  14/08/2026 20:12:48  31.4  31.6  28.0  32.5  67.3  231.2  0.04  4.6  -76  20:12 
 12616  14/08/2026 20:08:05  31.4  31.6  28.1  32.5  67.5  231.9  0.04  4.6  -73  20:08 
 12615  14/08/2026 20:03:21  31.4  31.7  28.2  32.5  67.5  231.6  0.04  4.6  -75  20:03 
 12614  14/08/2026 19:58:36  31.5  31.8  28.2  32.4  67.1  231.4  0.04  4.6  -75  19:58 
 12613  14/08/2026 19:53:52  31.6  31.8  28.3  32.6  66.8  231.9  0.04  4.6  -75  19:53 
 12612  14/08/2026 19:49:09  31.6  31.8  28.4  32.7  66.7  232.0  0.04  4.6  -76  19:49 
 12611  14/08/2026 19:44:26  31.7  31.8  28.3  32.6  66.6  231.5  0.04  4.6  -72  19:44 
 12610  14/08/2026 19:39:42  31.8  31.9  28.4  33.0  66.7  231.0  0.04  4.6  -78  19:39 
 12609  14/08/2026 19:34:59  31.8  31.9  28.3  32.8  66.6  231.2  0.04  4.6  -77  19:34 
 12608  14/08/2026 19:30:16  31.8  31.9  28.5  32.9  66.6  231.4  0.04  4.6  -75  19:30 
 12607  14/08/2026 19:25:33  31.9  32.0  28.4  32.8  66.5  231.7  0.04  4.6  -77  19:25 

Data every 5 minute.


ใช้เวลาประมวลผล 0.03517 วินาที